Date,TemperatureHighF,TemperatureAvgF,TemperatureLowF,DewpointHighF,DewpointAvgF,DewpointLowF,HumidityHigh,HumidityAvg,HumidityLow,PressureMaxIn,PressureMinIn,WindSpeedMaxMPH,WindSpeedAvgMPH,GustSpeedMaxMPH,PrecipitationSumIn
2013-3-1,32.3,30.0,27.2,29.7,26.5,24.1,91,87,80,29.43,29.26,10,5,17,0.00
2013-3-2,30.6,26.7,21.4,25.4,23.3,18.9,92,87,77,29.44,29.39,8,5,18,0.02
2013-3-3,28.6,23.6,20.1,23.9,20.2,17.2,91,86,81,29.41,29.34,11,4,18,0.05
2013-3-4,24.8,21.5,19.8,19.4,17.8,16.1,90,85,78,29.56,29.35,11,6,24,0.00
2013-3-5,36.2,29.0,22.0,28.9,24.3,18.4,89,82,72,29.80,29.56,9,4,16,0.02
2013-3-6,32.4,30.5,28.5,29.6,24.5,20.6,91,78,71,29.90,29.80,10,5,21,0.00
2013-3-7,33.3,29.8,26.8,23.9,22.2,20.6,80,73,66,29.89,29.82,9,6,17,0.00
2013-3-8,39.4,31.3,26.6,23.5,22.1,21.1,83,69,49,29.99,29.80,11,5,20,0.00
2013-3-9,49.1,35.7,22.4,25.0,19.8,14.0,87,56,26,30.02,29.96,9,2,14,0.00
2013-3-10,46.9,36.8,25.3,28.8,23.9,18.8,80,61,39,30.03,29.87,9,4,17,0.00
2013-3-11,44.2,38.3,34.4,31.3,29.4,27.8,82,71,53,29.92,29.75,9,5,15,0.00
2013-3-12,45.1,41.9,35.9,44.3,40.6,33.8,97,95,92,29.50,29.39,11,5,21,0.85
2013-3-13,37.5,34.6,32.4,33.9,30.6,27.5,95,86,69,29.50,29.42,5,2,16,0.01
2013-3-18,29.7,27.0,24.5,12.0,6.1,1.4,54,41,30,29.99,29.87,4,1,7,0.00
2013-3-19,27.9,24.7,20.8,25.7,22.1,8.1,94,90,44,29.87,29.42,10,3,26,0.00
2013-3-20,29.6,23.9,18.2,25.3,19.5,13.8,94,83,64,29.42,29.34,10,4,20,0.02
2013-3-21,33.9,23.5,15.2,17.7,13.6,10.9,86,68,40,29.43,29.32,6,2,9,0.23
2013-3-25,41.6,34.7,21.1,26.1,23.6,19.0,92,65,46,29.47,29.28,10,4,19,0.01
2013-3-26,35.0,32.1,30.1,26.5,24.1,20.9,80,72,56,29.49,29.31,8,4,14,0.00
2013-3-27,39.6,34.8,28.8,31.2,26.7,21.4,92,73,62,29.60,29.45,10,4,18,0.00
2013-3-28,43.5,37.0,31.2,32.8,31.0,29.6,94,80,60,29.73,29.60,10,3,19,0.01
2013-3-29,43.4,38.5,34.7,34.0,31.5,29.3,93,76,62,29.75,29.68,9,4,12,0.02
2013-3-30,45.4,38.3,29.7,30.7,21.3,12.1,81,53,27,29.79,29.73,11,4,16,0.00
2013-3-31,50.3,37.9,23.3,34.8,22.1,14.5,91,55,33,29.79,29.47,13,4,22,0.04